Erie, PA

2:43 PM EDT on June 28, 2017 (GMT -0400)
Erie International

Weather History for KERI - September, 2013

Change the Weather History Date:

Sunday, September 22, 2013

  Actual Average Record
Temperature  
Mean Temperature 56 °F 62 °F  
Max Temperature 58 °F 70 °F 89 °F (1931)
Min Temperature 53 °F 54 °F 37 °F (1904)
Degree Days  
Heating Degree Days 9 5  
Month to date heating degree days 71 55  
Since 1 July heating degree days 83 73  
Cooling Degree Days 0 1  
Month to date cooling degree days 65 62  
Year to date cooling degree days 686 620  
Growing Degree Days 6 (Base 50)    
Moisture  
Dew Point 44 °F    
Average Humidity 64    
Maximum Humidity 72    
Minimum Humidity 55    
Precipitation  
Precipitation T in 0.17 in 2.04 in (1983)
Month to date precipitation 3.95 3.27  
Year to date precipitation 37.82 29.10  
Snow  
Snow 0.00 in 0.00 in - ()
Month to date snowfall 0.0 0.0  
Since 1 July snowfall 0.0 0.0  
Since 1 September snowfall 0.0 0.0  
Snow Depth 0.00 in    
Sea Level Pressure  
Sea Level Pressure 29.93 in    
Wind  
Wind Speed 9 mph (North)    
Max Wind Speed 15 mph    
Max Gust Speed 21 mph    
Visibility 10 miles    
Events      
T = Trace of Precipitation, MM = Missing Value Source: NWS Daily Summary

Daily Weather History Graph

Daily Weather History Graph

Search for Another Location

Airport or City:

Trip Planner

Search our weather history database for the weather conditions in past years. The results will help you decide how hot, cold, wet, or windy it might be!

Date:

Astronomy

Sep. 22, 2013 Rise Set
Actual Time 7:08 AM EDT 7:17 PM EDT
Civil Twilight 6:40 AM EDT 7:45 PM EDT
Nautical Twilight 6:07 AM EDT 8:18 PM EDT
Astronomical Twilight 5:34 AM EDT 8:51 PM EDT
Moon 9:02 PM EDT (9/22) 10:31 AM EDT (9/22)
Length of Visible Light 13h 04m
Length of Day
12h 09m
Waning Gibbous, 89% of the Moon is Illuminated
Sep 22
Waning Gibbous
Sep 26
Last Quarter
Oct 4
New
Oct 11
First Quarter
Oct 18
Full

Hourly Weather History & Observations

Time (EDT) Temp. Dew Point Humidity Pressure Visibility Wind Dir Wind Speed Gust Speed Precip Events Conditions
12:27 AM 59.0 °F 48.2 °F 67% 29.81 in 10.0 mi North 8.1 mph - N/A   Overcast
12:51 AM 57.9 °F 46.9 °F 67% 29.81 in 10.0 mi North 9.2 mph - N/A   Overcast
1:02 AM 57.2 °F 46.4 °F 67% 29.82 in 10.0 mi North 5.8 mph - N/A   Mostly Cloudy
1:51 AM 57.0 °F 48.0 °F 72% 29.83 in 10.0 mi North 9.2 mph - N/A   Overcast
2:51 AM 57.0 °F 48.0 °F 72% 29.83 in 10.0 mi North 8.1 mph - N/A   Overcast
3:51 AM 57.0 °F 46.0 °F 67% 29.83 in 10.0 mi North 10.4 mph - N/A   Overcast
4:51 AM 55.9 °F 46.0 °F 69% 29.84 in 10.0 mi North 11.5 mph 19.6 mph N/A   Overcast
5:51 AM 55.0 °F 45.0 °F 69% 29.86 in 10.0 mi NNW 10.4 mph 17.3 mph N/A   Overcast
6:51 AM 55.0 °F 43.0 °F 64% 29.87 in 10.0 mi NNW 8.1 mph 17.3 mph 0.00 in   Overcast
7:51 AM 55.0 °F 43.0 °F 64% 29.89 in 10.0 mi NNW 11.5 mph 17.3 mph 0.00 in   Overcast
7:58 AM 55.4 °F 42.8 °F 63% 29.89 in 10.0 mi North 10.4 mph - N/A   Overcast
8:51 AM 55.0 °F 44.1 °F 67% 29.91 in 10.0 mi North 16.1 mph 20.7 mph N/A   Overcast
9:48 AM 55.4 °F 44.6 °F 67% 29.92 in 10.0 mi North 12.7 mph 19.6 mph N/A   Overcast
9:51 AM 55.9 °F 45.0 °F 67% 29.93 in 10.0 mi NNW 11.5 mph 17.3 mph N/A   Overcast
10:35 AM 55.4 °F 44.6 °F 67% 29.93 in 10.0 mi North 11.5 mph 16.1 mph N/A   Overcast
10:51 AM 57.0 °F 45.0 °F 64% 29.94 in 10.0 mi NNW 11.5 mph 19.6 mph N/A   Overcast
11:34 AM 57.2 °F 44.6 °F 63% 29.95 in 10.0 mi NNW 8.1 mph - N/A   Mostly Cloudy
11:51 AM 57.9 °F 44.1 °F 60% 29.95 in 10.0 mi North 10.4 mph - N/A   Mostly Cloudy
12:11 PM 57.2 °F 44.6 °F 63% 29.95 in 10.0 mi NNW 9.2 mph - N/A   Overcast
12:51 PM 57.0 °F 43.0 °F 59% 29.96 in 10.0 mi NNW 6.9 mph - N/A   Overcast
1:01 PM 57.2 °F 42.8 °F 59% 29.96 in 10.0 mi NNW 5.8 mph - N/A   Overcast
1:51 PM 57.9 °F 44.1 °F 60% 29.96 in 10.0 mi NNW 8.1 mph - N/A   Overcast
2:51 PM 57.0 °F 42.1 °F 57% 29.97 in 10.0 mi NNW 6.9 mph - N/A   Overcast
3:51 PM 57.0 °F 43.0 °F 59% 29.97 in 10.0 mi NNW 8.1 mph - N/A   Overcast
4:51 PM 57.0 °F 43.0 °F 59% 29.97 in 10.0 mi Variable 4.6 mph - N/A   Overcast
5:51 PM 55.9 °F 43.0 °F 62% 29.98 in 10.0 mi North 8.1 mph - N/A   Overcast
6:51 PM 55.9 °F 43.0 °F 62% 29.99 in 10.0 mi North 8.1 mph - N/A   Overcast
7:51 PM 55.9 °F 42.1 °F 60% 30.01 in 10.0 mi North 9.2 mph - N/A   Overcast
8:51 PM 55.9 °F 39.9 °F 55% 30.03 in 10.0 mi North 6.9 mph - N/A   Overcast
9:51 PM 55.9 °F 39.0 °F 53% 30.04 in 10.0 mi North 9.2 mph - N/A   Overcast
10:51 PM 55.0 °F 42.1 °F 62% 30.05 in 10.0 mi North 10.4 mph - N/A   Overcast
11:51 PM 54.0 °F 41.0 °F 62% 30.06 in 10.0 mi NNE 11.5 mph 20.7 mph N/A   Overcast